Regional Weather Roundup
Issued by NWS Albany, NY

Home | Current Version | Previous Version | Graphics & Text | Print | Product List | Glossary Off
Versions: 1 2 3 4 5 6 7 8 9 10 11 12 13 14 15 16 17 18 19 20 21 22 23 24 25 26 27 28 29 30 31 32 33 34 35 36 37 38 39 40 41 42 43 44 45 46 47 48 49 50

000
ASUS41 KALY 031510
RWRALY

NEW YORK STATE HOURLY WEATHER ROUNDUP
NATIONAL WEATHER SERVICE ALBANY NY
1100 AM EDT MON AUG 03 2015

NOTE: "FAIR" INDICATES FEW OR NO CLOUDS BELOW 12,000 FEET WITH NO
SIGNIFICANT WEATHER AND/OR NO OBSTRUCTIONS TO VISIBILITY.

NYZ032-033-038>043-046>054-057>066-NYZ062>081-031600-
EAST


CITY           SKY/WX    TMP DP  RH WIND       PRES   REMARKS
ALBANY         MOSUNNY   83  63  50 S18       29.73F
GLENS FALLS    SUNNY     80  63  55 SW12      29.74R
POUGHKEEPSIE   SUNNY     86  60  41 S12       29.80S
NEWBURGH       SUNNY     81  64  57 SW12G17   29.83F
MONTGOMERY     SUNNY     84  64  50 SW13      29.81F
WHITE PLAINS   MOSUNNY   84  59  42 S6        29.85S
ISLIP          MOSUNNY   83  65  54 S14       29.86R
NEW YORK CITY  MOSUNNY   85  59  41 SW12      29.84S
CENTRAL PARK   SUNNY     83  62  49 SW8       29.88R
$$

NYZ005>009-017-018-044>046-055-056-031600-
CENTRAL


CITY           SKY/WX    TMP DP  RH WIND       PRES   REMARKS
FULTON         PTSUNNY   74  63  68 W9        29.77R
SYRACUSE       CLOUDY    78  63  59 W13G20    29.76R
ROME           PTSUNNY   75  63  66 NW10      29.78R
ELMIRA         PTSUNNY   77  62  59 W9        29.79R
BINGHAMTON     MOSUNNY   76  61  59 S12G23    29.79S
MONTICELLO     SUNNY     79  63  57 SW10      29.85S
$$

NYZ026>034-041>043-031600-
NORTH


CITY           SKY/WX    TMP DP  RH WIND       PRES   REMARKS
WATERTOWN      LGT RAIN  71  62  73 SW13G21   29.74R
FORT DRUM      NOT AVBL
MASSENA        CLOUDY    71  63  75 SW10      29.70R
SARANAC LAKE   PTSUNNY   71  56  58 SW12G24   29.75R
PLATTSBURGH    LGT RAIN  79  62  56 W10G21    29.68S
$$

NYZ001>004-010>016-019>021-031600-
WEST


CITY           SKY/WX    TMP DP  RH WIND       PRES   REMARKS
NIAGARA FALLS  PTSUNNY   71  63  75 SW16      29.74S
BUFFALO        PTSUNNY   71  61  70 SW16G22   29.76R
DUNKIRK        PTSUNNY   72  61  68 SW9       29.79R
JAMESTOWN      PTSUNNY   70  54  56 W10G17    29.84S
WELLSVILLE     CLOUDY    73  57  57 W13       29.87R
ROCHESTER      LGT RAIN  73  61  65 SW9       29.76R
PENN YAN       CLOUDY    74  61  63 VRB6      29.80R
$$

             KEY
       WCI = WIND CHILL INDEX
       VSB = VISIBILITY
       HX  = HEAT INDEX
$$


USA.gov is the U.S. government's official web portal to all federal, state and local government web resources and services.